TIANYAN 01 (44881 NORAD) Tracking and Keplerian Element Data

This shows tracking and keplerian element data for the satellite.

Feedback or suggestion? Click here.




ElementValue
Catalog44881
NameTIANYAN 01
Epoch Orbit26049
Epoch Day286.83276806
Epoch Year2024
RAAN1.3341
Inclination97.819
Eccentricity0.001292
Argument of Perigee300.5854
Mean Anonmoly59.4085
Mean Motion14.84425943
Decay Rate4.692E-05
L11 44881U 19093C 24286.83276806 .00004692 00000+0 56319-3 0 9996
L22 44881 97.8190 1.3341 0012920 300.5854 59.4085 14.84425943260498



Live tracking and technical data element details for TIANYAN 01 (NORAD 44881). TIANYAN 01 can be tracked NOW for your location showing map with azimuth and elevation plus other details from your city location.







IsCatalogInMostPopularTable: catalog: 44881, numindb: 193
Update: records affected: 1



GetName: 44881 TIANYAN 01

Hit Count: updated at: Thu, 23 Jan 2025 16:17:54 GMT